{"data":{"norad_id":64129,"intl_designator":"2025-111G","name":"STARLINK-11679 [DTC]","alt_names":[],"object_type":"PAYLOAD","status":"ACTIVE","operator":null,"country":"US","launch_date":"2025-05-24","launch_site_code":"AFETR","launch_vehicle":null,"mission":null,"orbit_class":"UNKNOWN","rcs_meters":null,"size_class":null,"mass_kg":null,"dimensions":null,"purposes":["comms"],"wikipedia_slug":null,"has_3d_model":false,"image_url":null,"decayed_at":null,"tle_current":{"epoch":"2026-05-25T04:32:46.098816Z","epoch_age_seconds":54583,"freshness":"FRESH","line1":"1 64129U 25111G   26145.18942244  .00161384  00000+0  12363-2 0  9993","line2":"2 64129  42.9973 232.4578 0002952 349.5202  10.5603 15.70849434 58678","mean_motion":15.70849434,"eccentricity":0.0002952,"inclination_deg":42.9973,"raan_deg":232.4578,"arg_perigee_deg":349.5202,"mean_anomaly_deg":10.5603,"bstar":0.0012363,"rev_number":5867,"period_min":91.670147936024,"perigee_km":354.48004214111,"apogee_km":358.45615299071,"semimajor_km":6734.6050975659,"source":"CELESTRAK","updated_at":"2026-05-25T13:38:20.272259Z"}}}